Weather History for Biloxi, MS

Change the Weather History Date:

Tuesday, September 3, 2013

  Actual Average Record
Temperature  
Mean Temperature 84 °F -  
Max Temperature 91 °F 88 °F 96 °F (1997)
Min Temperature 76 °F 73 °F 66 °F (1952)
Cooling Degree Days 19    
Growing Degree Days 34 (Base 50)    
Moisture  
Dew Point 75 °F    
Average Humidity 77    
Maximum Humidity 92    
Minimum Humidity 63    
Precipitation  
Precipitation 0.00 in - - ()
Sea Level Pressure  
Sea Level Pressure 29.95 in    
Wind  
Wind Speed 5 mph (SSW)    
Max Wind Speed 13 mph    
Max Gust Speed 24 mph    
Visibility 10 miles    
Events Thunderstorm    
Averages and records for this station are not official NWS values.
T = Trace of Precipitation, MM = Missing Value Source: NWS Daily Summary

Daily Weather History Graph

Daily Weather History Graph

Search for Another Location

Airport:

Trip Planner

Search our weather history database for the weather conditions in past years. The results will help you decide how hot, cold, wet, or windy it might be!

Date:

Astronomy

Sep. 03, 2013 Rise Set
Actual Time 6:33 AM CDT 7:15 PM CDT
Civil Twilight 6:09 AM CDT 7:40 PM CDT
Nautical Twilight 5:40 AM CDT 8:08 PM CDT
Astronomical Twilight 5:11 AM CDT 8:37 PM CDT
Moon 4:51 AM CDT (9/3) 6:01 PM CDT (9/3)
Length of Visible Light 13h 30m
Length of Day
12h 42m
Waning Crescent, 3% of the Moon is Illuminated
Sep 3
Waning Crescent
Sep 5
New
Sep 12
First Quarter
Sep 19
Full
Sep 26
Last Quarter

Hourly Weather History & Observations

Time (CDT) Temp. Heat Index Dew Point Humidity Pressure Visibility Wind Dir Wind Speed Gust Speed Precip Events Conditions
12:58 AM 82.9 °F 91.8 °F 77.0 °F 82% 29.93 in 10.0 mi WSW 6.9 mph - N/A   Clear
1:18 AM 82.4 °F 90.9 °F 77.0 °F 84% 29.93 in 10.0 mi WSW 3.5 mph - N/A   Mostly Cloudy
1:43 AM 82.4 °F 92.4 °F 78.8 °F 89% 29.92 in 10.0 mi WNW 2.3 mph - N/A   Scattered Clouds
1:58 AM 82.6 °F 91.7 °F 77.5 °F 85% 29.93 in 10.0 mi Variable 3.5 mph - N/A   Partly Cloudy
2:58 AM 81.3 °F 88.3 °F 76.3 °F 85% 29.92 in 10.0 mi West 2.3 mph - N/A   Clear
3:58 AM 80.4 °F 86.3 °F 76.3 °F 87% 29.93 in 10.0 mi Variable 2.3 mph - N/A   Clear
4:58 AM 80.4 °F 86.3 °F 76.3 °F 87% 29.94 in 10.0 mi West 2.3 mph - N/A   Partly Cloudy
5:58 AM 79.5 °F - 76.1 °F 89% 29.95 in 10.0 mi Variable 1.2 mph - N/A   Scattered Clouds
6:58 AM 79.2 °F - 75.7 °F 89% 29.96 in 10.0 mi Calm Calm - N/A   Clear
7:58 AM 80.8 °F 86.7 °F 75.6 °F 84% 29.97 in 10.0 mi Variable 3.5 mph - N/A   Clear
8:58 AM 84.2 °F 93.0 °F 75.9 °F 76% 29.97 in 10.0 mi Variable 4.6 mph - N/A   Clear
9:58 AM 87.6 °F 98.7 °F 76.5 °F 69% 30.00 in 10.0 mi Variable 1.2 mph - N/A   Clear
10:58 AM 89.8 °F 100.9 °F 75.6 °F 63% 30.00 in 10.0 mi Variable 1.2 mph - N/A   Partly Cloudy
11:58 AM 90.9 °F 105.0 °F 77.7 °F 65% 29.99 in 10.0 mi SSW 9.2 mph - N/A   Scattered Clouds
12:58 PM 91.0 °F 104.8 °F 77.5 °F 64% 29.96 in 10.0 mi SSW 12.7 mph - N/A   Scattered Clouds
1:38 PM 89.6 °F 102.2 °F 77.0 °F 66% 29.94 in 10.0 mi SSW 11.5 mph - N/A Thunderstorm Thunderstorm
1:39 PM 89.6 °F 104.7 °F 78.8 °F 70% 29.94 in 10.0 mi SW 11.5 mph - N/A Thunderstorm Thunderstorm
1:58 PM 91.2 °F 107.4 °F 78.8 °F 67% 29.94 in 10.0 mi SSW 12.7 mph - N/A Thunderstorm Thunderstorm
2:56 PM 86.0 °F 96.9 °F 77.0 °F 74% 29.92 in 10.0 mi WSW 5.8 mph - N/A Thunderstorm Thunderstorm
2:57 PM 86.0 °F 96.9 °F 77.0 °F 74% 29.91 in 10.0 mi WSW 6.9 mph - N/A   Scattered Clouds
3:58 PM 86.9 °F 96.4 °F 75.2 °F 68% 29.91 in 10.0 mi Variable 2.3 mph - N/A   Mostly Cloudy
4:56 PM 87.8 °F 99.7 °F 77.0 °F 70% 29.90 in 10.0 mi Variable 4.6 mph - N/A Thunderstorm Thunderstorm
4:58 PM 87.4 °F 99.8 °F 77.4 °F 72% 29.91 in 10.0 mi Variable 4.6 mph - N/A Thunderstorm Thunderstorm
5:18 PM 86.0 °F 96.9 °F 77.0 °F 74% 29.92 in 10.0 mi SW 12.7 mph - N/A Thunderstorm Thunderstorm
5:28 PM 84.2 °F 94.1 °F 77.0 °F 79% 29.93 in 10.0 mi WSW 11.5 mph 24.2 mph N/A Thunderstorm Thunderstorm
5:38 PM 84.2 °F 92.3 °F 75.2 °F 74% 29.92 in 10.0 mi SW 5.8 mph - N/A Thunderstorm Thunderstorm
5:58 PM 83.3 °F 89.6 °F 73.6 °F 72% 29.93 in 10.0 mi Calm Calm - N/A Thunderstorm Thunderstorm
6:05 PM 84.2 °F 90.9 °F 73.4 °F 70% 29.93 in 10.0 mi Calm Calm - N/A Thunderstorm Partly Cloudy
6:57 PM 80.6 °F 84.6 °F 71.6 °F 74% 29.97 in 10.0 mi ENE 9.2 mph - N/A Thunderstorm Thunderstorm
6:58 PM 80.2 °F 84.0 °F 71.6 °F 75% 29.98 in 10.0 mi ENE 9.2 mph - N/A Thunderstorm Thunderstorm
7:13 PM 78.8 °F - 71.6 °F 78% 29.97 in 10.0 mi ESE 10.4 mph - N/A Thunderstorm Thunderstorm
7:16 PM 78.8 °F - 71.6 °F 78% 29.96 in 10.0 mi ESE 11.5 mph - N/A Thunderstorm Thunderstorm
7:31 PM 77.0 °F - 71.6 °F 83% 29.94 in 10.0 mi ESE 10.4 mph 19.6 mph N/A Thunderstorm Thunderstorm
7:44 PM 77.0 °F - 69.8 °F 78% 29.94 in 10.0 mi SSE 10.4 mph - N/A Thunderstorm Partly Cloudy
7:58 PM 79.2 °F - 69.1 °F 71% 29.94 in 10.0 mi SSE 8.1 mph 20.7 mph N/A Thunderstorm Partly Cloudy
8:58 PM 81.5 °F 84.9 °F 69.6 °F 67% 29.96 in 10.0 mi South 3.5 mph - N/A   Scattered Clouds
9:58 PM 81.3 °F 87.8 °F 75.7 °F 83% 29.99 in 10.0 mi South 3.5 mph - N/A   Partly Cloudy
10:58 PM 80.8 °F 87.1 °F 76.3 °F 86% 29.97 in 10.0 mi East 3.5 mph - N/A   Clear
11:58 PM 76.6 °F - 74.1 °F 92% 29.98 in 10.0 mi NE 3.5 mph - N/A   Scattered Clouds